Location: Paderno d�Adda
(45.6667°N, 9.4333°E)
Time: 14:11:57
(UTC+00:00)

Okean 2 Rocket - Pass Details

Date: 19 September 2020
Orbit: 616 x 642 km, 82.5° (Epoch: 31 October)

Event Time Altitude Azimuth Distance (km) Brightness Sun altitude
Rises 18:22:44 0° 171° (S) 2,932 6.3 -10.8°
Reaches altitude 10° 18:25:02 10° 165° (SSE) 2,025 5.4 -11.2°
Maximum altitude 18:29:19 46° 93° (E) 862 3.4 -11.9°
Drops below altitude 10° 18:33:37 10° 21° (NNE) 2,029 5.6 -12.7°
Sets 18:35:55 0° 15° (NNE) 2,937 6.5 -13.1°
